Skip Page Navigation
NASA JPL Caltech
NASA Logo - Jet Propulsion Laboratory + View the NASA Portal
+ Near-Earth Object (NEO) Program
Search JPL
JPL Home Earth Solar System Stars & Galaxies Technology
JPL Solar System Dynamics
BODIES ORBITS EPHEMERIDES TOOLS PHYSICAL DATA DISCOVERY FAQ SITE MAP
JPL Small-Body Database Browser
Search: [ help ]  
(1998 KY26)
Classification: Apollo [NEO]          SPK-ID: 3012392
Ephemeris | Orbit Diagram | Orbital Elements | Physical Parameters | Close-Approach Data ]

[ hide orbit diagram ]
Orbit Diagram
Note: Make sure you have Java enabled on your browser to see the applet. This applet is provided as a 3D orbit visualization tool. The applet was implemented using 2-body methods, and hence should not be used for determining accurate long-term trajectories (over several years or decades) or planetary encounter circumstances. For accurate long-term ephemerides, please instead use our Horizons system.
Orbit Viewer

Additional Notes: the orbits shown in the applet are color coded. The planets are white lines, and the asteroid/comet is a blue line. The bright white line indicates the portion of the orbit that is above the ecliptic plane, and the darker portion is below the ecliptic plane. Likewise for the asteroid/comet orbit, the light blue indicates the portion above the ecliptic plane, and the dark blue the portion below the ecliptic plane.

Orbit Viewer applet originally written and kindly provided by Osamu Ajiki (AstroArts), and further modified by Ron Baalke (JPL).


Orbital Elements at Epoch 2456400.5 (2013-Apr-18.0) TDB
Reference: JPL 24 (heliocentric ecliptic J2000)
 Element Value Uncertainty (1-sigma)   Units 
e .2015524026313046 5.4944e-07  
a 1.23201121804804 6.6342e-07 AU
q .9836963969817375 1.926e-07 AU
i 1.481085345948197 1.0955e-05 deg
node 84.44038765545083 6.2188e-05 deg
peri 209.1983136896744 0.00011625 deg
M 287.5818021471169 0.0033577 deg
tp 2456500.976762403730
(2013-Jul-27.47676240)
0.0047397 JED
period 499.4826651006288
1.37
0.00040344
1.105e-06
d
yr
n .7207457338433803 5.8216e-07 deg/d
Q 1.480326039114343 7.9713e-07 AU
  Orbit Determination Parameters
   # obs. used (total)      217  
   # delay obs. used      2  
   # Doppler obs. used      2  
   data-arc span      11 days  
   first obs. used      1998-05-28  
   last obs. used      1998-06-08  
   planetary ephem.      DE405  
   SB-pert. ephem.      SB405-CPV-2  
   condition code      2  
   fit RMS      .47506  
   data source      ORB  
   producer      Otto Matic  
   solution date      2011-Sep-14 19:34:01  

Additional Information
 Earth MOID = .00263179 AU 
 T_jup = 5.176 
[ show covariance matrix ]

Ephemeris | Orbit Diagram | Orbital Elements | Physical Parameters | Close-Approach Data ]

Physical Parameter Table
Parameter Symbol Value Units Sigma Reference Notes
absolute magnitude H 25.551 mag .99485 24 autocmod 2.5a
diameter diameter 0.03 km n/a S.J. Ostro et al. (1999) Science v.285, pp.557-559 effective diameter bound: 20-40m
rotation period rot_per 0.1784 h n/a Asteroid Lightcurve DataBase (Rev. 2013-May-01) Published Reference List:
[Hicks, M.; Weissman, P. (1998) Bul. Amer. Astron. Soc. 30, 1029.]
[Pravec, P.; Sarounova, L. (1998) IAUC 6941. (1998 KY26)]
[Ostro, S.J.; Pravec, P.; Benner, L.A.M.; Hudson, R.S.; et al. (1999) Science 285, 557-559.]

[ show close-approach data ]
Ephemeris | Orbit Diagram | Orbital Elements | Physical Parameters | Close-Approach Data ]
ABOUT SSD CREDITS/AWARDS PRIVACY/COPYRIGHT GLOSSARY LINKS
FirstGov 2013-Jun-20 02:47 UT
(server date/time)  
NASA Home Page
Site Manager:   Donald K. Yeomans
Webmaster  Alan B. Chamberlin